Flag for Canada Weather past 2 weeks in Creston, British Columbia, Canada

Now
47 °F

Cool.


Feels Like: 47 °F
Forecast: 41 / 63 °F
Wind: 1 mph from Northeast

Location: Creston

Current Time: Sep 3, 2015 at 2:35:07 AM

Latest Report: Sep 3, 2015 at 2:00 AM


Visibility: N/A

Pressure: 29.91 "Hg (27.75 "Hg at 617m altitude)

Humidity: 86%

Dew point: 43 °F

Location of CrestonLocation

Historic Weather in Creston — Graph

°F

Creston temperature yesterday

Maximum temperature yesterday: 69 °F (at 3:00 PM)
Minimum temperature yesterday: 53 °F (at 11:00 PM)
Average temperature yesterday: 58 °F

Past Weeks' High & Low Weather Summary

 TemperatureHumidityPressure
High91 °F (Aug 19, 5:00 PM)95% (Sep 1, 1:00 AM)30.28 "Hg (Sep 1, 1:00 AM)
Low47 °F (Aug 31, 2:00 AM)16% (Aug 19, 5:00 PM)29.55 "Hg (Aug 21, 3:00 AM)
Average64 °F54%29.91 "Hg
* Reported Aug 19 1:00 AM — Sep 3 1:00 AM, Creston, Weather by CustomWeather, © 2015

Note: Actual official high and low records may vary slightly from our data, if they occured in-between our weather recording intervals... More about our weather records

Advertising

Creston weather history for previous 24 hours

 ConditionsComfort  
Time TempWeatherWind HumidityBarometerVisibility
1:00 AM
Thu, Sep 3
48 °FCool.2 mph87%29.92 "HgN/A
12:00 AM49 °FCool.1 mph86%29.91 "HgN/A
11:00 PM
Wed, Sep 2
53 °FCool.8 mph76%29.90 "HgN/A
10:00 PM53 °FCool.9 mph76%29.90 "HgN/A
9:00 PM53 °FCool.6 mph79%29.89 "HgN/A
8:00 PM56 °FCool.12 mph70%29.86 "HgN/A
7:00 PM58 °FCool.5 mph67%29.84 "HgN/A
6:00 PM60 °FCool.8 mph63%29.83 "HgN/A
5:00 PM62 °FMild.10 mph59%29.80 "HgN/A
4:00 PM64 °FMild.9 mph46%29.79 "HgN/A
3:00 PM69 °FMild.8 mph44%29.77 "HgN/A
2:00 PM67 °FMild.9 mph50%29.78 "HgN/A
1:00 PM63 °FMild.10 mph67%29.78 "HgN/A
12:00 PM60 °FCool.2 mph80%29.80 "HgN/A
11:00 AM58 °FCool.3 mph85%29.78 "HgN/A
10:00 AM56 °FCool.2 mph91%29.77 "HgN/A
9:00 AM54 °FCool.3 mph95%29.77 "HgN/A
8:00 AM54 °FCool.2 mph91%29.75 "HgN/A
7:00 AM54 °FCool.5 mph88%29.75 "HgN/A
6:00 AM53 °FCool.2 mph88%29.74 "HgN/A
5:00 AM54 °FCool.9 mph88%29.72 "HgN/A
4:00 AM56 °FCool.3 mph78%29.71 "HgN/A
3:00 AM58 °FCool.5 mph64%29.71 "HgN/A
2:00 AM57 °FCool.5 mph70%29.72 "HgN/A
Weather by CustomWeather, © 2015

See weather overviewHow to use our weather pages